Weather History for Willimantic, CT

Change the Weather History Date:

Saturday, February 16, 2013

  Actual Average Record
Temperature  
Mean Temperature 34 °F -  
Max Temperature 37 °F 38 °F 72 °F (1954)
Min Temperature 28 °F 16 °F -6 °F (1969)
Degree Days  
Heating Degree Days 32    
Moisture  
Dew Point 26 °F    
Average Humidity 75    
Maximum Humidity 89    
Minimum Humidity 50    
Precipitation  
Precipitation 0.01 in - - ()
Sea Level Pressure  
Sea Level Pressure 29.89 in    
Wind  
Wind Speed 5 mph (North)    
Max Wind Speed 16 mph    
Max Gust Speed 24 mph    
Visibility 6 miles    
Events Snow    
Averages and records for this station are not official NWS values.
T = Trace of Precipitation, MM = Missing Value Source: NWS Daily Summary

Daily Weather History Graph

Daily Weather History Graph

Search for Another Location

Airport:

Trip Planner

Search our weather history database for the weather conditions in past years. The results will help you decide how hot, cold, wet, or windy it might be!

Date:

Astronomy

Feb. 16, 2013 Rise Set
Actual Time 6:42 AM EST 5:23 PM EST
Civil Twilight 6:14 AM EST 5:52 PM EST
Nautical Twilight 5:41 AM EST 6:24 PM EST
Astronomical Twilight 5:09 AM EST 6:56 PM EST
Moon 9:47 AM EST (2/16) No Moon Set
Length of Visible Light 11h 37m
Length of Day
10h 41m
Waxing Crescent, 39% of the Moon is Illuminated
Feb 16
Waxing Crescent
Feb 17
First Quarter
Feb 25
Full
Mar 4
Last Quarter
Mar 11
New

Hourly Weather History & Observations

Time (EST) Temp. Windchill Dew Point Humidity Pressure Visibility Wind Dir Wind Speed Gust Speed Precip Events Conditions
12:52 AM 33.1 °F - 30.0 °F 89% 29.93 in 5.0 mi Calm Calm - N/A   Overcast
1:52 AM 32.0 °F - 28.9 °F 88% 29.94 in 5.0 mi Calm Calm - N/A   Overcast
2:00 AM 32.0 °F - 28.4 °F 87% 29.93 in 5.0 mi Calm Calm - N/A   Overcast
2:52 AM 36.0 °F 28.0 °F 28.9 °F 76% 29.95 in 7.0 mi NNW 11.5 mph 17.3 mph N/A   Overcast
3:01 AM 35.6 °F 28.0 °F 26.6 °F 70% 29.94 in 10.0 mi NNW 10.4 mph - N/A   Overcast
4:52 AM 34.0 °F 26.6 °F 28.0 °F 79% 29.94 in 2.5 mi North 9.2 mph - 0.00 in Snow Light Snow
5:02 AM 33.8 °F 27.0 °F 28.4 °F 81% 29.93 in 2.0 mi NNW 8.1 mph - 0.00 in Snow Light Snow
5:11 AM 33.8 °F 27.7 °F 28.4 °F 81% 29.93 in 1.5 mi North 6.9 mph - 0.00 in Snow Light Snow
5:52 AM 33.1 °F 27.7 °F 28.9 °F 85% 29.94 in 1.8 mi North 5.8 mph - 0.01 in Snow Light Snow
6:31 AM 32.0 °F 27.5 °F 28.4 °F 87% 29.92 in 2.5 mi NNE 4.6 mph - 0.01 in Snow Light Snow
6:42 AM 32.0 °F - 28.4 °F 87% 29.93 in 3.0 mi Calm Calm - 0.01 in Snow Light Snow
7:35 AM 33.8 °F 30.8 °F 28.4 °F 81% 29.94 in 2.5 mi NNE 3.5 mph - 0.00 in Snow Light Snow
7:45 AM 32.0 °F - 28.4 °F 87% 29.95 in 4.0 mi Calm Calm - 0.00 in Snow Light Snow
7:52 AM 33.1 °F 30.0 °F 28.9 °F 85% 29.96 in 5.0 mi North 3.5 mph - 0.00 in Snow Light Snow
8:52 AM 33.1 °F 30.0 °F 28.9 °F 85% 29.94 in 10.0 mi NNW 3.5 mph - 0.00 in   Overcast
9:15 AM 33.8 °F - 30.2 °F 87% 29.93 in 10.0 mi Calm Calm - N/A   Overcast
9:52 AM 34.0 °F 29.8 °F 28.9 °F 82% 29.94 in 3.0 mi NNE 4.6 mph - 0.00 in Snow Light Snow
9:59 AM 33.8 °F 27.7 °F 28.4 °F 81% 29.93 in 2.0 mi NNE 6.9 mph - 0.00 in Snow Light Snow
10:16 AM 33.8 °F 27.0 °F 28.4 °F 81% 29.92 in 1.8 mi North 8.1 mph - 0.00 in Snow Light Snow
10:31 AM 33.8 °F 28.6 °F 28.4 °F 81% 29.92 in 2.5 mi North 5.8 mph - 0.00 in Snow Light Snow
10:39 AM 33.8 °F 29.6 °F 28.4 °F 81% 29.92 in 3.0 mi North 4.6 mph - 0.00 in Snow Light Snow
10:52 AM 34.0 °F 29.8 °F 28.9 °F 82% 29.93 in 2.5 mi NNW 4.6 mph - 0.00 in Snow Light Snow
11:00 AM 33.8 °F 28.6 °F 30.2 °F 87% 29.92 in 3.0 mi North 5.8 mph - 0.00 in Snow Light Snow
11:38 AM 35.6 °F - 28.4 °F 75% 29.90 in 10.0 mi Calm Calm - 0.00 in   Overcast
11:52 AM 35.1 °F 31.0 °F 27.0 °F 72% 29.91 in 10.0 mi NNW 4.6 mph - 0.00 in   Overcast
12:52 PM 36.0 °F 33.3 °F 26.1 °F 67% 29.89 in 10.0 mi North 3.5 mph - N/A   Overcast
1:29 PM 35.6 °F 29.9 °F 26.6 °F 70% 29.87 in 6.0 mi NNE 6.9 mph - 0.00 in Snow Light Snow
1:50 PM 35.6 °F 30.7 °F 26.6 °F 70% 29.87 in 2.5 mi NNW 5.8 mph - 0.00 in Snow Light Snow
1:52 PM 35.1 °F 28.6 °F 28.0 °F 76% 29.87 in 2.5 mi NNW 8.1 mph - 0.00 in Snow Light Snow
2:01 PM 35.6 °F 31.7 °F 26.6 °F 70% 29.86 in 5.0 mi NNW 4.6 mph - 0.00 in Snow Light Snow
2:41 PM 35.6 °F 30.7 °F 26.6 °F 70% 29.86 in 4.0 mi NNW 5.8 mph - 0.00 in Snow Light Snow
2:52 PM 35.1 °F 30.1 °F 28.0 °F 76% 29.86 in 2.0 mi North 5.8 mph - 0.00 in Snow Light Snow
2:59 PM 35.6 °F 31.7 °F 28.4 °F 75% 29.85 in 3.0 mi North 4.6 mph - 0.00 in Snow Light Snow
3:52 PM 36.0 °F 29.0 °F 24.1 °F 62% 29.83 in 10.0 mi North 9.2 mph - 0.00 in   Overcast
4:52 PM 37.0 °F 33.3 °F 21.0 °F 52% 29.83 in 10.0 mi NNW 4.6 mph - N/A   Overcast
5:52 PM 36.0 °F 31.1 °F 19.9 °F 52% 29.83 in 10.0 mi North 5.8 mph - N/A   Overcast
6:52 PM 35.1 °F 29.3 °F 18.0 °F 50% 29.82 in 10.0 mi NNW 6.9 mph - N/A   Overcast
7:52 PM 35.1 °F 29.3 °F 18.0 °F 50% 29.81 in 10.0 mi North 6.9 mph - N/A   Overcast
8:52 PM 34.0 °F 28.8 °F 18.0 °F 52% 29.80 in 10.0 mi North 5.8 mph - N/A   Overcast
9:52 PM 33.1 °F 23.0 °F 18.0 °F 54% 29.77 in 10.0 mi North 15.0 mph - N/A   Overcast
10:52 PM 30.0 °F 20.0 °F 19.9 °F 66% 29.74 in 8.0 mi North 12.7 mph - 0.00 in Snow Light Snow
11:52 PM 28.9 °F 17.3 °F 21.0 °F 72% 29.70 in 3.0 mi North 16.1 mph 24.2 mph 0.00 in Snow Light Snow